Weather History for Douglas, WY

Change the Weather History Date:

Wednesday, July 10, 2013

  Actual Average Record
Temperature  
Mean Temperature 78 °F 71 °F  
Max Temperature 97 °F 88 °F 97 °F (2013)
Min Temperature 58 °F 53 °F 49 °F (2010)
Degree Days  
Heating Degree Days 0 0  
Month to date heating degree days 0 9  
Since 1 June heating degree days 56 119  
Since 1 July heating degree days 0 9  
Cooling Degree Days 13 6  
Month to date cooling degree days 91 54  
Year to date cooling degree days 213 131  
Since 1 June cooling degree days 197 125  
Growing Degree Days 27 (Base 50)    
Moisture  
Dew Point 50 °F    
Average Humidity 46    
Maximum Humidity 80    
Minimum Humidity 11    
Precipitation  
Precipitation 0.00 in 0.05 in 0.73 in (2001)
Month to date precipitation 0.20 0.49  
Year to date precipitation 5.39 8.04  
Sea Level Pressure  
Sea Level Pressure 29.96 in    
Wind  
Wind Speed 9 mph (SE)    
Max Wind Speed 21 mph    
Max Gust Speed 26 mph    
Visibility 10 miles    
Events      
T = Trace of Precipitation, MM = Missing Value Source: NWS Daily Summary

Daily Weather History Graph

Daily Weather History Graph

Search for Another Location

Airport:

Trip Planner

Search our weather history database for the weather conditions in past years. The results will help you decide how hot, cold, wet, or windy it might be!

Date:

Astronomy

Jul. 10, 2013 Rise Set
Actual Time 5:32 AM MDT 8:40 PM MDT
Civil Twilight 4:58 AM MDT 9:14 PM MDT
Nautical Twilight 4:14 AM MDT 9:58 PM MDT
Astronomical Twilight 3:21 AM MDT 10:51 PM MDT
Moon 8:00 AM MDT (7/10) 9:46 PM MDT (7/10)
Length of Visible Light 16h 16m
Length of Day
15h 07m
Waxing Crescent, 5% of the Moon is Illuminated
Jul 10
Waxing Crescent
Jul 15
First Quarter
Jul 22
Full
Jul 29
Last Quarter
Aug 6
New

Hourly Weather History & Observations

Time (MDT) Temp. Heat Index Dew Point Humidity Pressure Visibility Wind Dir Wind Speed Gust Speed Precip Events Conditions
12:53 AM 66.9 °F - 52.0 °F 59% 30.06 in 10.0 mi East 11.5 mph - N/A   Clear
1:53 AM 66.0 °F - 52.0 °F 60% 30.06 in 10.0 mi East 10.4 mph - N/A   Clear
2:53 AM 64.9 °F - 52.0 °F 63% 30.05 in 10.0 mi East 9.2 mph - N/A   Clear
3:53 AM 64.0 °F - 52.0 °F 65% 30.03 in 10.0 mi ESE 9.2 mph - N/A   Clear
4:53 AM 60.1 °F - 51.1 °F 72% 30.03 in 10.0 mi ESE 3.5 mph - N/A   Clear
5:53 AM 59.0 °F - 53.1 °F 81% 30.03 in 10.0 mi East 4.6 mph - N/A   Clear
6:53 AM 64.0 °F - 55.0 °F 73% 30.02 in 10.0 mi SSE 5.8 mph - N/A   Clear
7:53 AM 70.0 °F - 55.9 °F 61% 30.03 in 10.0 mi SSE 8.1 mph - N/A   Clear
8:53 AM 73.9 °F - 55.0 °F 52% 30.03 in 10.0 mi SSE 12.7 mph - N/A   Clear
9:53 AM 78.1 °F - 55.0 °F 45% 30.01 in 10.0 mi SSE 15.0 mph 18.4 mph N/A   Clear
10:53 AM 82.0 °F 81.3 °F 54.0 °F 38% 30.00 in 10.0 mi South 5.8 mph - N/A   Clear
11:53 AM 86.0 °F 84.0 °F 53.1 °F 32% 29.97 in 10.0 mi Variable 4.6 mph - N/A   Clear
12:53 PM 90.0 °F - 51.1 °F 26% 29.95 in 10.0 mi Variable 4.6 mph - N/A   Clear
1:53 PM 93.0 °F - 34.0 °F 12% 29.92 in 10.0 mi NW 5.8 mph - N/A   Clear
2:53 PM 93.0 °F - 35.1 °F 13% 29.90 in 10.0 mi WNW 8.1 mph - N/A   Clear
3:53 PM 93.9 °F - 34.0 °F 12% 29.88 in 10.0 mi NW 6.9 mph - N/A   Clear
4:53 PM 95.0 °F - 33.1 °F 11% 29.86 in 10.0 mi West 6.9 mph - N/A   Clear
5:53 PM 93.9 °F - 41.0 °F 16% 29.85 in 10.0 mi North 8.1 mph - N/A   Clear
6:53 PM 90.0 °F - 52.0 °F 27% 29.85 in 10.0 mi SE 16.1 mph - N/A   Clear
7:53 PM 86.0 °F 84.0 °F 53.1 °F 32% 29.85 in 10.0 mi SE 16.1 mph - N/A   Clear
8:53 PM 79.0 °F - 54.0 °F 42% 29.87 in 10.0 mi ESE 12.7 mph - N/A   Clear
9:53 PM 75.9 °F - 55.0 °F 48% 29.89 in 10.0 mi ESE 11.5 mph - N/A   Clear
10:53 PM 75.0 °F - 55.9 °F 51% 29.89 in 10.0 mi SE 11.5 mph - N/A   Clear
11:53 PM 73.0 °F - 53.1 °F 49% 29.89 in 10.0 mi SE 10.4 mph - N/A   Clear